Zurück zum Katalog

MARISAT 3

AktivKommunikationMEO
NORAD 8882·PAYLOAD·🇺🇸 United States

Gestartet Jun 10, 1976 von Cape Canaveral Space Force Station

Loading…

Nächste Überflüge (nächste 24 Stunden)

TLE

AktuellSource: Space-Track

Epoche: Sep 14, 2026, 11:49 UTC

1 08882U 76053A   26257.49262855 -.00000190  00000-0  00000-0 0  9991
2 08882   7.5264 300.4832 0133115 334.8114 199.6071  0.95899849122010

Verfolge MARISAT 3 in Echtzeit mit AllMySat

Download on the App Store